Orbital Elements at Epoch 2459200.5 (2020-Dec-17.0) TDB
Reference: JPL 24 (heliocentric ecliptic J2000)
Element | Value | Uncertainty (1-sigma) | Units |
e | .170262473842503 | 4.2047e-08 | |
a | 2.411212454363056 | 1.1421e-08 | au |
q | 2.000673456923349 | 1.0544e-07 | au |
i | 10.53048558454318 | 3.4902e-06 | deg |
node | 317.4726315391501 | 2.6615e-05 | deg |
peri | 180.9472576184548 | 3.042e-05 | deg |
M | 299.0512746650588 | 1.5119e-05 | deg |
tp | 2459432.033464729047 (2021-Aug-05.53346473) | 5.8003e-05 | TDB |
period | 1367.576546423231 3.74 | 9.7169e-06 2.66e-08 | d yr |
n | .2632393784037511 | 1.8704e-09 | deg/d |
Q | 2.821751451802764 | 1.3366e-08 | au |
|
| | Orbit Determination Parameters
Additional Information
|